Вернуться в каталог

STARLINK-32225

АктивенСвязьVLEO
NORAD 62036·PAYLOAD·🇺🇸 United States

Запущен Nov 21, 2024 с Cape Canaveral Space Force Station

Loading…

Ближайшие Пролёты (ближайшие 24 часа)

TLE

СвежийSource: CelesTrak SupGP

Эпоха: Sep 14, 2026, 15:02 UTC

1 62036C 24216E   26257.62687500 -.00003381  00000+0 -12248-3 0  2571
2 62036  42.9997 269.4768 0001483 275.2963 284.0238 15.27574698    13

Отслеживайте STARLINK-32225 в реальном времени с AllMySat

Download on the App Store